星链-31802 (STARLINK-31802 )

导读

STARLINK-31802是美国太空探索技术公司(SpaceX)星链互联网卫星星座的一员,于北京时间2024年5月3日8时发射。星链项目旨在构建全球卫星互联网,该卫星入轨后,将进一步扩充星链星座规模,提升全球覆盖能力,为全球各地用户提供高速低延迟的互联网接入服务。

基本信息
目录编号:
59636
目录名称:
STARLINK-31802
国际标识:
2024-082F
轨道中心:
EARTH
卫星名称:
星链-31802
卫星全名:
星链-31802 (STARLINK-31802 )
卫星状态:
在轨 (已飞行854 天)
发射日期:
2024-05-03 UTC
国别 :
美国 (US)
星等 :
--
轨道信息
数据来源 国际轨道数据 AOE轨道数据
星历时间 2026-09-03T23:15:19+0800
14小时前
查看轨道信息
2026-09-04T00:00:00+0800
13小时前
查看轨道信息
半长轴 6861.174km 6861.155km
偏心率 0.0001042 0.0002084
轨道倾角 43.003° 43.006°
近地点辐角 264.167° 296.238°
升交点赤经 215.108° 214.949°
平近点角 95.906° 234.661°
近地点 482.322km 481.588km
远地点 483.752km 484.448km
周期 94.266分钟 94.266分钟
每日圈数 15.275841 15.275907
详细信息
固有亮度:
5
最大亮度:
1.5
卫星平台:
Starlink v2.0 mini
覆盖范围:
全球
运营商:
太空探索技术公司
运营商所在国:
美国
制造商(研发单位):
太空探索技术公司
制造商所在国:
美国
使用方式:
暂无
卫星简介
星链(Starlink)计划是由太空探索技术公司(SpaceX)提出的一个巨型低轨卫星互联网星座项目,计划在2019年至2024年间在太空搭建由约1.2万颗卫星组成的“星链”网络,其中1584颗将部署在地球上空550千米处的近地轨道,并从2020年开始工作。该卫星仍在工作。
2D轨道图
3D轨道图
轨道高度分析图
轨道倾角分析图
轨道综合分析图
查看轨道综合分析图
交会数据列表
事件ID 空间交会对象 最接近时刻(TCA) 交会距离 交会风险概率(CRP) 交会风险指数(CRI) 操作
CDM_260905-012505-963606-381321
2026-09-05T
01:25:59+0000
0.488 km
远距离
7.834443E-5 中风险 0.73
CDM_260903-142303-825705-963627
2026-09-03T
14:23:04+0000
1.195 km
极远距离
1.422711E-5 中风险 0.58
CDM_260903-133503-825705-963625
2026-09-03T
13:35:57+0000
2.543 km
极远距离
1.667125E-6 低风险 0.39
CDM_260903-093305-301805-963622
2026-09-03T
09:33:35+0000
2.789 km
极远距离
1.156003E-6 低风险 0.36
CDM_260904-090505-963606-394121
2026-09-04T
09:05:19+0000
2.856 km
极远距离
7.401203E-7 极低风险 0.32
CDM_260904-235105-963606-381322
2026-09-04T
23:51:50+0000
2.712 km
极远距离
5.886003E-7 极低风险 0.3